Lacon, IL

7:35 AM CST on December 08, 2019 (GMT -0600)
Lacon

Weather History for KC75 - October, 2019

Change the Weather History Date:

Wednesday, October 2, 2019

  Actual Average (KVYS) Record (KVYS)
Temperature  
Mean Temperature 70 °F -  
Max Temperature 80 °F 72 °F 89 °F (1976)
Min Temperature 61 °F 45 °F 24 °F (1974)
Cooling Degree Days 5    
Growing Degree Days 20 (Base 50)    
Moisture  
Dew Point 65 °F    
Average Humidity 84    
Maximum Humidity 98    
Minimum Humidity 73    
Precipitation  
Precipitation 0.33 in - - ()
Sea Level Pressure  
Sea Level Pressure 29.89 in    
Wind  
Wind Speed 6 mph (West)    
Max Wind Speed 12 mph    
Max Gust Speed 20 mph    
Visibility 9 miles    
Events Rain , Thunderstorm    
Averages and records for this station are not official NWS values.
T = Trace of Precipitation, MM = Missing Value Source: NWS Daily Summary

Daily Weather History Graph

Daily Weather History Graph

Search for Another Location

Airport or City:

Astronomy

Oct. 02, 2019 Rise Set
Actual Time 6:54 AM CDT 6:37 PM CDT
Civil Twilight 6:27 AM CDT 7:05 PM CDT
Nautical Twilight 5:55 AM CDT 7:37 PM CDT
Astronomical Twilight 5:23 AM CDT 8:09 PM CDT
Moon 11:22 AM CDT (10/2) 9:29 PM CDT (10/2)
Length of Visible Light 12h 37m
Length of Day
11h 43m
Waxing Crescent, 20% of the Moon is Illuminated
Oct 2
Waxing Crescent
Oct 5
First Quarter
Oct 13
Full
Oct 21
Last Quarter
Oct 27
New

Hourly Weather History & Observations

Time (CDT) Temp. Dew Point Humidity Pressure Visibility Wind Dir Wind Speed Gust Speed Precip Events Conditions
12:15 AM 76.1 °F 68.7 °F 78% 29.84 in 10.0 mi SSE 6.9 mph - N/A   Scattered Clouds
12:35 AM 76.3 °F 68.4 °F 76% 29.84 in 10.0 mi South 5.8 mph - N/A   Clear
12:55 AM 76.5 °F 68.2 °F 75% 29.85 in 10.0 mi SW 4.6 mph - N/A   Scattered Clouds
1:15 AM 76.3 °F 67.8 °F 75% 29.84 in 10.0 mi SSW 5.8 mph - N/A   Scattered Clouds
1:30 AM 76.6 °F 67.5 °F 73% 29.85 in 10.0 mi SSW 6.9 mph - N/A   Scattered Clouds
1:55 AM 76.5 °F 67.3 °F 73% 29.85 in 10.0 mi SSW 8.1 mph - N/A   Scattered Clouds
2:35 AM 76.1 °F 67.1 °F 74% 29.84 in 10.0 mi SSW 5.8 mph - N/A   Mostly Cloudy
2:55 AM 75.2 °F 67.1 °F 76% 29.84 in 10.0 mi SSW 5.8 mph - N/A   Mostly Cloudy
3:15 AM 74.7 °F 67.1 °F 77% 29.84 in 10.0 mi SSW 5.8 mph - N/A   Scattered Clouds
3:35 AM 74.5 °F 67.1 °F 78% 29.83 in 10.0 mi SSW 5.8 mph - N/A   Scattered Clouds
3:55 AM 74.3 °F 67.5 °F 79% 29.83 in 10.0 mi SSW 3.5 mph - N/A   Scattered Clouds
4:10 AM 74.3 °F 67.5 °F 79% 29.83 in 10.0 mi SSW 4.6 mph - N/A   Mostly Cloudy
4:35 AM 74.5 °F 67.5 °F 79% 29.83 in 10.0 mi SSW 6.9 mph - N/A   Mostly Cloudy
4:55 AM 75.2 °F 67.3 °F 76% 29.83 in 10.0 mi SSW 9.2 mph - N/A   Mostly Cloudy
5:10 AM 75.2 °F 67.3 °F 76% 29.82 in 10.0 mi SSW 9.2 mph 16.1 mph N/A   Mostly Cloudy
5:35 AM 74.8 °F 67.1 °F 77% 29.83 in 10.0 mi SW 8.1 mph - N/A   Mostly Cloudy
5:55 AM 74.8 °F 67.1 °F 77% 29.83 in 10.0 mi SSW 9.2 mph 17.3 mph N/A   Scattered Clouds
6:15 AM 74.3 °F 67.1 °F 78% 29.83 in 10.0 mi SW 8.1 mph - N/A   Scattered Clouds
6:35 AM 74.7 °F 67.6 °F 79% 29.85 in 10.0 mi WSW 10.4 mph 16.1 mph N/A Rain Light Rain
6:55 AM 72.7 °F 69.8 °F 91% 29.85 in 10.0 mi SW 8.1 mph 17.3 mph N/A Rain Light Rain
7:15 AM 72.5 °F 70.0 °F 92% 29.86 in 10.0 mi SW 9.2 mph - N/A   Overcast
7:35 AM 72.9 °F 70.0 °F 91% 29.86 in 10.0 mi SW 6.9 mph - N/A   Overcast
7:55 AM 72.7 °F 70.0 °F 91% 29.87 in 10.0 mi SW 6.9 mph - N/A   Overcast
8:15 AM 73.4 °F 70.0 °F 89% 29.86 in 10.0 mi SW 5.8 mph - N/A   Mostly Cloudy
8:35 AM 73.4 °F 69.8 °F 88% 29.87 in 10.0 mi SW 6.9 mph - N/A   Overcast
8:55 AM 73.8 °F 70.0 °F 88% 29.88 in 10.0 mi West 6.9 mph - N/A   Overcast
9:15 AM 73.9 °F 70.2 °F 88% 29.88 in 10.0 mi West 9.2 mph - N/A   Overcast
9:35 AM 73.9 °F 70.7 °F 90% 29.89 in 10.0 mi West 5.8 mph - N/A   Overcast
9:55 AM 76.3 °F 70.7 °F 83% 29.89 in 10.0 mi West 10.4 mph - N/A   Mostly Cloudy
10:15 AM 78.1 °F 70.5 °F 77% 29.89 in 10.0 mi West 9.2 mph - N/A   Mostly Cloudy
10:35 AM 78.3 °F 70.0 °F 76% 29.89 in 10.0 mi West 10.4 mph 19.6 mph N/A   Mostly Cloudy
10:55 AM 79.7 °F 70.2 °F 73% 29.90 in 10.0 mi West 8.1 mph - N/A   Mostly Cloudy
11:15 AM 78.8 °F 69.4 °F 73% 29.90 in 10.0 mi West 5.8 mph - N/A   Mostly Cloudy
11:35 AM 76.6 °F 69.1 °F 77% 29.92 in 10.0 mi NNW 9.2 mph - N/A   Overcast
11:55 AM 74.5 °F 67.8 °F 80% 29.93 in 10.0 mi NW 9.2 mph 16.1 mph N/A   Mostly Cloudy
12:15 PM 72.1 °F 66.4 °F 82% 29.93 in 10.0 mi NNW 11.5 mph - N/A   Overcast
12:35 PM 72.3 °F 66.0 °F 80% 29.93 in 10.0 mi North 8.1 mph - N/A   Mostly Cloudy
12:55 PM 71.1 °F 65.5 °F 82% 29.92 in 10.0 mi NNW 9.2 mph - N/A   Overcast
1:15 PM 71.4 °F 64.4 °F 78% 29.92 in 10.0 mi NNE 6.9 mph - N/A   Overcast
1:35 PM 69.8 °F 63.5 °F 80% 29.93 in 10.0 mi North 4.6 mph - N/A   Overcast
1:55 PM 70.5 °F 63.5 °F 78% 29.93 in 10.0 mi North 4.6 mph - N/A   Overcast
2:15 PM 70.0 °F 63.0 °F 78% 29.93 in 10.0 mi North 4.6 mph - N/A   Mostly Cloudy
2:35 PM 69.4 °F 62.8 °F 79% 29.93 in 10.0 mi North 4.6 mph - N/A   Mostly Cloudy
2:55 PM 70.0 °F 62.2 °F 76% 29.94 in 10.0 mi NNE 6.9 mph - N/A   Scattered Clouds
3:35 PM 67.1 °F 60.8 °F 80% 29.94 in 10.0 mi North 5.8 mph - 0.03 in   Mostly Cloudy
3:55 PM 66.7 °F 61.0 °F 82% 29.94 in 10.0 mi North 5.8 mph - 0.03 in   Overcast
4:15 PM 65.8 °F 60.6 °F 83% 29.94 in 10.0 mi NNE 5.8 mph - N/A Rain Light Rain
4:35 PM 66.0 °F 60.8 °F 83% 29.93 in 10.0 mi NE 4.6 mph - N/A   Overcast
4:55 PM 65.5 °F 60.6 °F 84% 29.94 in 10.0 mi NE 5.8 mph - N/A   Overcast
5:15 PM 64.6 °F 60.1 °F 85% 29.94 in 10.0 mi NE 5.8 mph - N/A   Overcast
5:35 PM 63.9 °F 60.1 °F 87% 29.94 in 10.0 mi NNE 3.5 mph - N/A   Overcast
5:55 PM 63.7 °F 60.1 °F 88% 29.95 in 10.0 mi NNE 6.9 mph - N/A   Overcast
6:15 PM 62.6 °F 60.3 °F 92% 29.94 in 5.0 mi NE 6.9 mph - N/A Rain Rain
6:35 PM 61.7 °F 60.3 °F 95% 29.94 in 7.0 mi NE 4.6 mph - 0.02 in Rain Light Rain
6:55 PM 61.2 °F 59.9 °F 96% 29.93 in 10.0 mi East 5.8 mph - 0.02 in   Overcast
7:15 PM 61.3 °F 60.1 °F 96% 29.93 in 10.0 mi East 6.9 mph - N/A   Overcast
7:35 PM 61.7 °F 60.1 °F 94% 29.92 in 10.0 mi Calm Calm - N/A   Overcast
7:55 PM 61.5 °F 60.1 °F 95% 29.91 in 5.0 mi East 6.9 mph - 0.03 in Rain Light Rain
8:15 PM 61.3 °F 60.3 °F 96% 29.91 in 10.0 mi East 5.8 mph - N/A   Overcast
8:35 PM 61.7 °F 60.4 °F 96% 29.91 in 10.0 mi Calm Calm - N/A   Overcast
8:55 PM 61.5 °F 60.3 °F 96% 29.90 in 10.0 mi ESE 5.8 mph - 0.01 in   Overcast
9:15 PM 61.7 °F 60.4 °F 96% 29.90 in 10.0 mi ESE 3.5 mph - N/A   Overcast
9:35 PM 61.9 °F 60.8 °F 96% 29.90 in 10.0 mi ESE 3.5 mph - N/A   Overcast
9:55 PM 62.1 °F 60.8 °F 96% 29.89 in 7.0 mi East 3.5 mph - N/A Rain Light Rain
10:10 PM 62.1 °F 60.8 °F 96% 29.90 in 5.0 mi Calm Calm - 0.01 in Rain Light Rain
10:35 PM 62.4 °F 61.2 °F 96% 29.90 in 5.0 mi Calm Calm - 0.02 in Rain Rain
10:55 PM 62.2 °F 61.2 °F 96% 29.91 in 4.0 mi North 3.5 mph - 0.04 in Rain , Thunderstorm Light Thunderstorms and Rain
11:15 PM 62.1 °F 61.2 °F 97% 29.93 in 4.0 mi North 3.5 mph - 0.02 in   Overcast
11:35 PM 62.1 °F 61.3 °F 97% 29.96 in 3.0 mi North 8.1 mph - 0.10 in Rain , Thunderstorm Heavy Thunderstorms and Rain
11:55 PM 61.9 °F 61.3 °F 98% 29.94 in 2.5 mi Calm Calm - 0.20 in Rain , Thunderstorm Heavy Thunderstorms and Rain